Regional Weather Roundup
Issued by NWS Sioux Falls, SD

Home | Current Version | Previous Version | Text Only | Print | Product List | Glossary On
Versions: 1 2 3 4 5 6 7 8 9 10 11 12 13 14 15 16 17 18 19 20 21 22 23 24 25 26 27 28 29 30 31 32 33 34 35 36 37 38 39 40 41 42 43 44 45 46 47 48 49 50
000
ASUS43 KFSD 280910
RWRFSD

WEATHER ROUNDUP FOR SE SOUTH DAKOTA/SW MINNESOTA/NW IOWA
NATIONAL WEATHER SERVICE SIOUX FALLS SD
300 AM CST WED JAN 28 2015

NOTE: "FAIR" INDICATES FEW OR NO CLOUDS BELOW 12,000 FEET WITH NO
SIGNIFICANT WEATHER AND OR OBSTRUCTIONS TO VISIBILITY.


SDZ038>040-050-052>070-281000-
SOUTHEAST SOUTH DAKOTA

CITY           SKY/WX    TMP DP  RH WIND       PRES   REMARKS
CHAMBERLAIN    PTCLDY    32  31  95 E6        29.75S WCI  27
HURON          PTCLDY    34  30  85 SE14      29.78F WCI  25
MADISON        FAIR      32  32 100 S15G21    29.84F WCI  22
MITCHELL       PTCLDY    35  31  85 SE14      29.81F WCI  26
SIOUX FALLS    PTCLDY    34  30  85 SE10      29.89F WCI  26
WINNER         FAIR      51  31  46 SW15      29.75F
YANKTON        PTCLDY    34  28  80 E9        29.87F WCI  26
$$

MNZ071-072-080-081-089-090-097-098-281000-
SOUTHWEST MINNESOTA

CITY           SKY/WX    TMP DP  RH WIND       PRES   REMARKS
FAIRMONT       CLOUDY    30  27  86 SE16G22   30.01F WCI  19
JACKSON        CLOUDY    32  30  93 SE14      29.98F WCI  22
LUVERNE        PTCLDY    34  32  93 S12       29.91F WCI  25
MARSHALL       CLEAR     32  27  80 SE16      29.92F WCI  21
MONTEVIDEO     PTCLDY    32  32 100 S17       29.93F WCI  21
PIPESTONE      PTCLDY    34  30  86 S15G26    29.88F WCI  24
REDWOOD FALLS  CLOUDY    33  30  88 SE20      29.98F WCI  21
TRACY          CLEAR     33  31  93 S14G21    29.92F WCI  23
WINDOM         CLOUDY    30  30 100 SE13G20   29.96F FOG     WCI  20
WORTHINGTON    CLEAR     30  28  93 SE14G20   29.94F WCI  20
$$

IAZ001>003-012>014-020>022-031-032-NEZ013-014-SDZ071-281000-
NORTHWEST IOWA

CITY           SKY/WX    TMP DP  RH WIND       PRES   REMARKS
CHEROKEE       CLEAR     31  30  97 SE5       29.98S WCI  26
DENISON        FAIR      34  32  93 SE6       29.95F WCI  29
ESTHERVILLE    CLOUDY    30  29  96 S20       30.00F FOG     WCI  17
LE MARS        CLEAR     34  32  93 SE8       29.94F WCI  27
ORANGE CITY    CLEAR     34  30  86 SE8       29.93F WCI  27
SHELDON        CLEAR     34  32  93 SE16G22   29.93F WCI  23
SIOUX CITY     PTCLDY    31  28  89 SE8       29.93F WCI  23
SPENCER        MOCLDY    31  28  89 SE13      29.98F WCI  21
STORM LAKE     MOCLDY    30  28  93 SE17      29.98F FOG     WCI  18
$$

ABBREVIATIONS USED IN REMARKS
   TC - TEMPERATURE IN CELSIUS
  WCI - WIND CHILL INDEX
   HX - HEAT INDEX
  VSB - VISIBILITY



USA.gov is the U.S. government's official web portal to all federal, state and local government web resources and services.